[[{"header":{"parameterUnit":"m.s-1","parameterCategory":1,"la1":30.2991,"la2":30.254,"lo1":-89.0895,"lo2":-89.0444,"dy":0.0017,"dx":0.0017,"nx":28,"ny":28,"refTime":"2024-06-23T21:00:00:Z","depth":0,"parameterNumber":2,"parameterNumberName":"U-component_of_WINDS"},"data":[0,0,0,0,0,0,0,0,0,0,0,0,0,0,0,0,0,0,0,0,0,0,0,0,0,0,0,0,0,0,0,0,0,0,0,0,0,0,0,0,0,0,0,0,0,0,0,0,0,0,0,0,0,0,0,0,0,0,1.4142,1.4144,0,1.4286,1.4287,1.4289,1.4325,1.4325,1.4324,1.4323,1.4472,1.4477,1.4481,0,0,0,0,0,0,0,0,0,0,0,0,0,1.3901,1.3905,1.4142,1.4144,1.4146,1.4285,1.4287,1.4289,1.4326,1.4325,1.4323,1.4322,1.447,1.4476,1.4482,0,0,0,0,0,0,0,0,0,0,0,0,0,1.4021,1.3907,1.4142,1.4181,1.4186,1.4285,1.4287,1.429,1.4326,1.4324,1.4323,1.4322,1.4469,1.4476,1.4483,1.4554,0,0,1.4505,1.4508,0,0,0,0,0,0,0,0,1.4014,1.403,1.4173,1.4178,1.4184,1.4286,1.4257,1.4379,1.4326,1.4273,1.4323,1.4321,1.4411,1.4423,1.4453,1.4561,1.4568,1.4505,1.451,1.4513,1.4515,0,0,0,0,0,0,0,1.4006,1.4024,1.4199,1.4175,1.4182,1.4191,1.4207,1.428,1.4348,1.4277,1.428,1.4297,1.4414,1.4446,1.4457,1.457,1.4505,1.4512,1.4516,1.4519,1.4742,1.4744,0,0,0,0,0,0,1.3991,1.4017,1.4194,1.4203,1.4094,1.4197,1.4214,1.4255,1.4347,1.436,1.4298,1.4298,1.4434,1.4448,1.4462,1.4551,1.4513,1.452,1.4524,1.4741,1.4743,1.4744,0,0,0,0,0,0,1.3986,1.4006,1.4189,1.4111,1.4135,1.4202,1.4248,1.4258,1.429,1.4363,1.4375,1.4318,1.4434,1.4452,1.4531,1.4557,1.4523,1.4529,1.4739,1.4741,1.4744,1.473,0,0,0,0,0,0,1.3978,1.4004,1.4032,1.4111,1.4139,1.4254,1.4249,1.4262,1.4302,1.4304,1.4385,1.4397,1.4434,1.452,1.4538,1.4566,1.4535,1.4737,1.474,1.4743,1.4729,1.4732,1.4735,0,0,0,0,0,1.397,1.4024,1.4033,1.4055,1.4175,1.4256,1.4272,1.4313,1.4304,1.4333,1.4379,1.4394,1.4551,1.4527,1.4548,1.4579,1.4735,1.4739,1.4743,1.4727,1.4731,1.4735,0,0,0,0,0,0,1.3947,1.4035,1.4047,1.4128,1.4184,1.4262,1.4299,1.4316,1.4376,1.4375,1.4425,1.4443,1.4517,1.4556,1.4528,1.4653,1.4643,1.4651,1.4625,1.4629,1.4632,1.4621,1.4541,0,0,0,0,0,1.3951,1.4009,1.4083,1.4147,1.4174,1.4232,1.4268,1.4295,1.4355,1.438,1.4432,1.449,1.4553,1.4593,1.4655,1.4734,1.4752,1.4766,1.4769,1.4771,1.4777,1.4821,1.4828,1.4756,1.4756,1.4756,0,0,1.3961,1.4016,1.405,1.4144,1.419,1.4249,1.4252,1.4314,1.4358,1.439,1.4466,1.4506,1.4575,1.4654,1.4691,1.4689,1.4801,1.4776,1.4777,1.4782,1.4826,1.4832,1.4838,1.4759,1.4758,1.4758,0,0,1.4009,1.4056,1.4114,1.416,1.423,1.4268,1.4281,1.4357,1.4384,1.4461,1.4486,1.4539,1.4646,1.4693,1.4732,1.4794,1.4811,1.4813,1.4829,1.4871,1.4877,1.4882,1.4904,1.4912,1.4819,1.4819,1.4819,0,1.4012,1.4101,1.4142,1.4203,1.4243,1.4273,1.4332,1.4375,1.4462,1.4489,1.4484,1.4617,1.4666,1.4756,1.4771,1.4801,1.4818,1.4805,1.4873,1.4879,1.4884,1.4905,1.4914,1.4819,1.4819,1.4819,1.4819,0,1.4102,1.4163,1.4201,1.4283,1.4327,1.4387,1.4437,1.4477,1.4499,1.4537,1.4615,1.4674,1.4747,1.477,1.4793,1.4863,1.4859,1.4863,1.4855,1.489,1.4911,1.4919,1.4819,1.4819,1.4819,1.4819,0,0,1.4141,1.4242,1.4256,1.4292,1.4371,1.4419,1.4479,1.4549,1.4583,1.4641,1.4693,1.4781,1.4785,1.4828,1.4856,1.4893,1.4938,1.4893,1.4895,1.4899,1.5018,1.5014,1.5023,1.4949,1.4951,1.4952,1.5012,0,1.4198,1.4306,1.4344,1.4433,1.449,1.4517,1.457,1.4624,1.466,1.4713,1.4754,1.4816,1.4816,1.4842,1.488,1.4925,1.4963,1.4921,1.4998,1.5,1.498,1.5034,1.5031,1.5085,1.5021,1.5022,1.5023,0,1.4279,1.4337,1.4431,1.4501,1.4526,1.4573,1.4639,1.469,1.4751,1.4775,1.4822,1.4847,1.4911,1.4898,1.4987,1.4957,1.4991,1.5018,1.5021,1.503,1.5014,1.5045,1.5103,1.5111,1.5037,1.5035,1.5034,0,1.4297,1.4399,1.4468,1.4499,1.4582,1.4613,1.465,1.4709,1.4748,1.4807,1.4833,1.4898,1.4934,1.4984,1.5026,1.5013,1.5111,1.5102,1.5133,1.5132,1.5153,1.5151,1.5217,1.5174,1.5174,1.5174,1.5174,0,1.4358,1.4414,1.4477,1.452,1.4584,1.4626,1.4689,1.4727,1.4779,1.4829,1.4858,1.4905,1.4957,1.5011,1.5045,1.5113,1.5129,1.515,1.5158,1.5148,1.5145,1.5171,1.5168,1.5176,1.5175,1.5175,1.5175,0,1.4389,1.4434,1.4511,1.4582,1.4601,1.4645,1.4707,1.4749,1.4785,1.4849,1.4866,1.4924,1.4989,1.5035,1.5119,1.5142,1.5215,1.5223,1.5194,1.5198,1.5226,1.5222,1.5311,1.5325,1.5272,1.5273,1.5273,0,1.4425,1.4469,1.4544,1.4579,1.4614,1.4671,1.4711,1.4754,1.4794,1.4865,1.4899,1.4965,1.502,1.5122,1.5172,1.5236,1.5246,1.5273,1.5256,1.5243,1.5246,1.5243,1.5247,1.5275,1.5276,1.5276,1.5276,0,1.4483,1.4502,1.4557,1.462,1.4666,1.4717,1.477,1.4797,1.4849,1.4893,1.4958,1.5001,1.5085,1.515,1.5219,1.5257,1.5275,1.5281,1.5291,1.5281,1.5262,1.5272,1.52,1.5279,1.5279,1.5278,1.5278,1.5278,1.4517,1.4557,1.4615,1.4676,1.4719,1.4766,1.4809,1.485,1.4905,1.4976,1.4998,1.5066,1.5125,1.5218,1.5257,1.531,1.5309,1.5325,1.5329,1.5332,1.5331,1.5253,1.5323,1.5323,1.5323,1.5323,1.5323,0,1.4576,1.4615,1.4669,1.474,1.4788,1.4799,1.4857,1.4896,1.4955,1.5007,1.506,1.5135,1.5198,1.5251,1.5317,1.5349,1.5359,1.5365,1.5363,1.5371,1.5328,1.5313,1.5356,1.5355,1.5355,1.5355,1.5355,1.5355,1.4613,1.468,1.4705,1.4794,1.4833,1.4898,1.493,1.4974,1.5015,1.5097,1.5149,1.5183,1.5236,1.5305,1.5363,1.5377,1.54,1.5403,1.5419,1.5378,1.5375,1.5371,1.5356,1.5408,1.5408,1.5458,1.5459,1.5459]},{"header":{"parameterUnit":"m.s-1","parameterCategory":1,"la1":30.2991,"la2":30.254,"lo1":-89.0895,"lo2":-89.0444,"dy":0.0017,"dx":0.0017,"nx":28,"ny":28,"refTime":"2024-06-23T21:00:00:Z","depth":0,"parameterNumber":3,"parameterNumberName":"V-component_of_WINDS"},"data":[0,0,0,0,0,0,0,0,0,0,0,0,0,0,0,0,0,0,0,0,0,0,0,0,0,0,0,0,0,0,0,0,0,0,0,0,0,0,0,0,0,0,0,0,0,0,0,0,0,0,0,0,0,0,0,0,0,0,4.2776,4.2775,0,4.274,4.274,4.2739,4.2607,4.2604,4.2601,4.2598,4.2564,4.2566,4.2568,0,0,0,0,0,0,0,0,0,0,0,0,0,4.2731,4.2733,4.2776,4.2775,4.2775,4.274,4.274,4.2739,4.2607,4.2604,4.26,4.2596,4.2564,4.2566,4.2568,0,0,0,0,0,0,0,0,0,0,0,0,0,4.2729,4.2733,4.2776,4.2705,4.2698,4.274,4.274,4.2739,4.2608,4.2604,4.2599,4.2595,4.2563,4.2566,4.2569,4.2677,0,0,4.2577,4.2579,0,0,0,0,0,0,0,0,4.2729,4.2731,4.2716,4.271,4.2702,4.2673,4.2711,4.2719,4.2609,4.2642,4.2598,4.2593,4.2604,4.2604,4.2607,4.2676,4.2674,4.2578,4.2579,4.2581,4.2581,0,0,0,0,0,0,0,4.2729,4.2731,4.2762,4.2716,4.2708,4.2675,4.267,4.2712,4.2649,4.2639,4.2629,4.2627,4.26,4.2605,4.2605,4.2674,4.2578,4.258,4.2582,4.2583,4.283,4.2834,0,0,0,0,0,0,4.2739,4.2732,4.2763,4.2761,4.2705,4.268,4.2674,4.2687,4.2649,4.2638,4.2631,4.2621,4.2602,4.2602,4.2604,4.2728,4.2581,4.2583,4.2585,4.2825,4.2831,4.2836,0,0,0,0,0,0,4.2739,4.2743,4.2764,4.2744,4.2744,4.2685,4.2702,4.2689,4.2693,4.2642,4.2631,4.2647,4.2598,4.2599,4.266,4.2725,4.2585,4.2587,4.2819,4.2827,4.2833,4.2979,0,0,0,0,0,0,4.2738,4.2744,4.2785,4.2746,4.2746,4.2821,4.2706,4.2691,4.2698,4.2685,4.2654,4.2645,4.2595,4.2656,4.2663,4.2726,4.259,4.2813,4.2823,4.2831,4.2968,4.299,4.3009,0,0,0,0,0,4.2737,4.2828,4.2787,4.2792,4.2795,4.2825,4.2825,4.2765,4.2704,4.2745,4.2711,4.2646,4.2717,4.2663,4.267,4.2735,4.2809,4.282,4.283,4.2959,4.2986,4.3008,0,0,0,0,0,0,4.2877,4.2821,4.2776,4.2856,4.2846,4.2803,4.2852,4.2795,4.2803,4.279,4.2716,4.271,4.2781,4.2764,4.2705,4.2838,4.2752,4.2764,4.2847,4.2872,4.2893,4.2896,4.2592,0,0,0,0,0,4.2917,4.2945,4.2895,4.2971,4.2968,4.2911,4.2922,4.2876,4.2863,4.2859,4.283,4.2821,4.284,4.2855,4.2871,4.2964,4.2956,4.3013,4.3033,4.305,4.3062,4.311,4.3135,4.2871,4.2871,4.2871,0,0,4.3001,4.2974,4.2996,4.2999,4.2985,4.3017,4.2909,4.2947,4.297,4.2865,4.2919,4.2898,4.2883,4.296,4.2993,4.2948,4.3133,4.3064,4.3078,4.3081,4.3124,4.3149,4.3171,4.2879,4.2877,4.2876,0,0,4.3169,4.3151,4.3212,4.32,4.3181,4.3142,4.3157,4.3122,4.3103,4.3157,4.3078,4.3105,4.3141,4.3133,4.3134,4.3298,4.3238,4.3305,4.3413,4.346,4.3481,4.3499,4.3558,4.358,4.3317,4.3317,4.3317,0,4.3275,4.3319,4.3251,4.3294,4.3297,4.3202,4.3263,4.3256,4.3244,4.3248,4.3198,4.3241,4.3224,4.3298,4.3338,4.3341,4.3356,4.3308,4.3483,4.3501,4.3517,4.3572,4.3594,4.3325,4.3324,4.3324,4.3323,0,4.345,4.3482,4.3533,4.3522,4.3531,4.3584,4.3524,4.3542,4.3495,4.3462,4.3518,4.3493,4.3502,4.3516,4.3472,4.3584,4.3557,4.3497,4.3408,4.3551,4.3602,4.3623,4.3337,4.3334,4.3332,4.333,0,0,4.3707,4.3656,4.3677,4.367,4.3641,4.3665,4.3712,4.372,4.3736,4.3731,4.3769,4.3801,4.3745,4.3746,4.3699,4.3741,4.3873,4.3675,4.3673,4.3713,4.3996,4.4042,4.4067,4.3832,4.3836,4.3839,4.3997,0,4.3867,4.3945,4.3884,4.3973,4.4001,4.3911,4.3952,4.394,4.391,4.393,4.3897,4.3921,4.3844,4.3844,4.3882,4.3849,4.3929,4.3837,4.3868,4.387,4.3876,4.4094,4.4143,4.4293,4.4016,4.402,4.4022,0,4.4064,4.4066,4.4157,4.4122,4.4131,4.417,4.4171,4.4191,4.4175,4.415,4.4151,4.4093,4.4138,4.4051,4.4112,4.4051,4.406,4.4046,4.405,4.4052,4.3956,4.4101,4.4339,4.4362,4.4052,4.405,4.4048,0,4.4242,4.4268,4.4325,4.4322,4.4282,4.4311,4.4296,4.4275,4.4283,4.4285,4.4289,4.4297,4.4302,4.4309,4.4255,4.4196,4.4324,4.4232,4.4305,4.4307,4.4336,4.4336,4.458,4.4342,4.4342,4.4341,4.4341,0,4.4428,4.4487,4.4404,4.444,4.4504,4.4434,4.45,4.4475,4.4457,4.4487,4.441,4.444,4.4366,4.4388,4.4346,4.4404,4.4406,4.4388,4.4376,4.4395,4.4398,4.4401,4.439,4.4347,4.4346,4.4345,4.4344,0,4.4638,4.4585,4.4641,4.4598,4.4589,4.4638,4.4601,4.4633,4.4597,4.4636,4.4641,4.4585,4.4608,4.4554,4.4569,4.4541,4.4623,4.4594,4.4628,4.462,4.4696,4.469,4.4952,4.4983,4.4725,4.4728,4.473,0,4.476,4.4803,4.4764,4.4777,4.4766,4.4789,4.4797,4.473,4.4741,4.4725,4.4759,4.4774,4.4783,4.4823,4.4785,4.4796,4.4768,4.4859,4.4769,4.4787,4.477,4.4768,4.4772,4.4878,4.4881,4.4883,4.4885,0,4.4982,4.4953,4.4966,4.497,4.498,4.4981,4.4975,4.4991,4.4919,4.4936,4.4957,4.4964,4.4978,4.4995,4.4998,4.4983,4.4923,4.4914,4.4931,4.4952,4.497,4.4961,4.4679,4.4908,4.4906,4.4904,4.4903,4.4902,4.5152,4.5186,4.5163,4.518,4.5168,4.5165,4.5192,4.516,4.5176,4.5181,4.5141,4.5171,4.5153,4.515,4.5141,4.5164,4.5123,4.5149,4.5155,4.5163,4.5175,4.4965,4.5164,4.5164,4.5163,4.5162,4.5162,0,4.537,4.535,4.5366,4.5361,4.5374,4.5315,4.5306,4.5321,4.5348,4.5336,4.5346,4.537,4.5386,4.5349,4.5359,4.5385,4.5358,4.539,4.5388,4.5385,4.5211,4.5195,4.5412,4.5412,4.5412,4.5412,4.5412,4.5412,4.5485,4.5539,4.5508,4.5556,4.5536,4.5564,4.5564,4.5561,4.555,4.5581,4.5593,4.5568,4.5546,4.5553,4.5566,4.5554,4.5562,4.5604,4.5584,4.5422,4.5398,4.5374,4.5359,4.5606,4.5606,4.5755,4.5757,4.5758]}]]